Franklin, PA

7:31 PM EST on December 12, 2019 (GMT -0500)
Venango Regional

Weather History for KFKL - August, 2019

Change the Weather History Date:

Saturday, August 3, 2019

  Actual Average Record
Temperature  
Mean Temperature 70 °F -  
Max Temperature 81 °F 82 °F 97 °F (1988)
Min Temperature 59 °F 58 °F 41 °F (1927)
Cooling Degree Days 5    
Growing Degree Days 20 (Base 50)    
Moisture  
Dew Point 61 °F    
Average Humidity 89    
Maximum Humidity 100    
Minimum Humidity 44    
Precipitation  
Precipitation 0.01 in - - ()
Sea Level Pressure  
Sea Level Pressure 30.08 in    
Wind  
Wind Speed 2 mph (North)    
Max Wind Speed 8 mph    
Max Gust Speed -    
Visibility 4 miles    
Events Fog    
Averages and records for this station are not official NWS values.
T = Trace of Precipitation, MM = Missing Value Source: NWS Daily Summary

Daily Weather History Graph

Daily Weather History Graph

Search for Another Location

Airport or City:

Astronomy

Aug. 03, 2019 Rise Set
Actual Time 6:16 AM EDT 8:34 PM EDT
Civil Twilight 5:45 AM EDT 9:05 PM EDT
Nautical Twilight 5:06 AM EDT 9:43 PM EDT
Astronomical Twilight 4:24 AM EDT 10:25 PM EDT
Moon 9:08 AM EDT (8/3) 10:36 PM EDT (8/3)
Length of Visible Light 15h 20m
Length of Day
14h 18m
Waxing Crescent, 10% of the Moon is Illuminated
Aug 3
Waxing Crescent
Aug 7
First Quarter
Aug 15
Full
Aug 23
Last Quarter
Aug 30
New

Hourly Weather History & Observations

Time (EDT) Temp. Heat Index Dew Point Humidity Pressure Visibility Wind Dir Wind Speed Gust Speed Precip Events Conditions
12:07 AM 64.4 °F - 62.6 °F 94% 30.11 in 2.5 mi Calm Calm - N/A   Clear
12:16 AM 64.4 °F - 62.6 °F 94% 30.11 in 5.0 mi North 3.5 mph - N/A   Clear
12:29 AM 64.4 °F - 64.4 °F 100% 30.11 in 2.5 mi North 3.5 mph - N/A   Partly Cloudy
12:34 AM 64.4 °F - 62.6 °F 94% 30.10 in 1.0 mi NNE 3.5 mph - N/A   Mist
12:36 AM 64.4 °F - 62.6 °F 94% 30.10 in 0.5 mi North 3.5 mph - N/A Fog Fog
12:45 AM 64.4 °F - 64.4 °F 100% 30.10 in 0.2 mi North 3.5 mph - N/A Fog Fog
12:56 AM 64.0 °F - 64.0 °F 100% 30.08 in 0.2 mi Calm Calm - N/A Fog Fog
1:15 AM 64.4 °F - 64.4 °F 100% 30.11 in 0.8 mi Calm Calm - N/A   Mostly Cloudy
1:17 AM 64.4 °F - 64.4 °F 100% 30.11 in 1.5 mi SE 3.5 mph - N/A   Scattered Clouds
1:19 AM 64.4 °F - 64.4 °F 100% 30.11 in 4.0 mi Calm Calm - N/A   Scattered Clouds
1:36 AM 62.6 °F - 60.8 °F 94% 30.11 in 1.2 mi SSW 4.6 mph - N/A   Partly Cloudy
1:38 AM 62.6 °F - 60.8 °F 94% 30.11 in 0.8 mi SSW 4.6 mph - N/A   Mist
1:44 AM 62.6 °F - 60.8 °F 94% 30.11 in 0.2 mi SSW 3.5 mph - N/A Fog Fog
1:56 AM 62.1 °F - 62.1 °F 100% 30.08 in 0.8 mi Calm Calm - N/A   Mist
1:59 AM 62.6 °F - 62.6 °F 100% 30.10 in 1.2 mi Calm Calm - N/A   Scattered Clouds
2:08 AM 62.6 °F - 60.8 °F 94% 30.11 in 3.0 mi Calm Calm - N/A   Partly Cloudy
2:25 AM 62.6 °F - 62.6 °F 100% 30.10 in 1.0 mi Calm Calm - N/A   Mist
2:29 AM 62.6 °F - 60.8 °F 94% 30.10 in 0.2 mi Calm Calm - N/A Fog Fog
2:43 AM 60.8 °F - 60.8 °F 100% 30.10 in 0.5 mi North 3.5 mph - N/A Fog Fog
2:56 AM 61.0 °F - 61.0 °F 100% 30.07 in 0.2 mi North 4.6 mph - N/A Fog Fog
3:34 AM 62.6 °F - 62.6 °F 100% 30.08 in 0.2 mi North 3.5 mph - N/A Fog Fog
3:56 AM 62.1 °F - 62.1 °F 100% 30.06 in 0.2 mi North 3.5 mph - N/A Fog Fog
4:13 AM 62.6 °F - 62.6 °F 100% 30.08 in 0.2 mi Calm Calm - N/A Fog Fog
4:52 AM 60.8 °F - 60.8 °F 100% 30.08 in 0.5 mi Calm Calm - N/A Fog Fog
4:56 AM 61.0 °F - 60.1 °F 97% 30.06 in 0.5 mi Calm Calm - N/A Fog Fog
5:04 AM 60.8 °F - 60.8 °F 100% 30.08 in 0.8 mi Calm Calm - N/A   Mist
5:18 AM 60.8 °F - 59.0 °F 94% 30.09 in 0.5 mi South 3.5 mph - N/A Fog Fog
5:23 AM 60.8 °F - 59.0 °F 94% 30.09 in 1.0 mi Calm Calm - N/A   Mist
5:30 AM 60.8 °F - 59.0 °F 94% 30.09 in 1.2 mi Calm Calm - N/A   Partly Cloudy
5:37 AM 60.8 °F - 60.8 °F 100% 30.09 in 3.0 mi Calm Calm - N/A   Partly Cloudy
5:48 AM 60.8 °F - 59.0 °F 94% 30.09 in 1.0 mi Calm Calm - N/A   Mist
5:53 AM 59.0 °F - 59.0 °F 100% 30.09 in 0.5 mi Calm Calm - N/A Fog Fog
5:56 AM 60.1 °F - 59.0 °F 96% 30.07 in 0.8 mi Calm Calm - N/A   Mostly Cloudy
6:54 AM 60.8 °F - 60.8 °F 100% 30.10 in 0.2 mi Calm Calm - 0.01 in Fog Fog
6:56 AM 60.1 °F - 60.1 °F 100% 30.08 in 0.2 mi Calm Calm - 0.01 in Fog Fog
7:26 AM 62.6 °F - 60.8 °F 94% 30.11 in 0.8 mi Calm Calm - N/A   Mist
7:28 AM 62.6 °F - 62.6 °F 100% 30.11 in 1.5 mi Calm Calm - N/A   Mist
7:30 AM 62.6 °F - 62.6 °F 100% 30.11 in 3.0 mi Calm Calm - N/A   Overcast
7:44 AM 62.6 °F - 62.6 °F 100% 30.11 in 0.8 mi North 4.6 mph - N/A   Mostly Cloudy
7:47 AM 62.6 °F - 60.8 °F 94% 30.11 in 0.2 mi North 4.6 mph - N/A Fog Fog
7:56 AM 61.0 °F - 61.0 °F 100% 30.09 in 0.2 mi Calm Calm - N/A Fog Fog
8:09 AM 62.6 °F - 62.6 °F 100% 30.11 in 0.8 mi NNW 3.5 mph - N/A   Overcast
8:14 AM 62.6 °F - 62.6 °F 100% 30.11 in 2.0 mi NNW 3.5 mph - N/A   Mostly Cloudy
8:23 AM 62.6 °F - 62.6 °F 100% 30.11 in 10.0 mi Calm Calm - N/A   Mostly Cloudy
8:30 AM 64.4 °F - 62.6 °F 94% 30.11 in 10.0 mi NNE 3.5 mph - N/A   Scattered Clouds
8:56 AM 64.9 °F - 63.0 °F 93% 30.09 in 10.0 mi North 3.5 mph - N/A   Clear
9:56 AM 69.1 °F - 63.0 °F 81% 30.09 in 10.0 mi North 5.8 mph - N/A   Clear
10:56 AM 73.9 °F - 61.0 °F 64% 30.08 in 10.0 mi NNE 8.1 mph - N/A   Clear
12:56 PM 78.1 °F - 57.0 °F 48% 30.06 in 10.0 mi Variable 5.8 mph - N/A   Clear
1:56 PM 79.0 °F - 57.0 °F 47% 30.05 in 10.0 mi NNW 4.6 mph - N/A   Clear
2:56 PM 78.1 °F - 57.0 °F 48% 30.04 in 10.0 mi NW 4.6 mph - N/A   Clear
3:56 PM 81.0 °F 81.0 °F 57.0 °F 44% 30.03 in 10.0 mi Variable 4.6 mph - N/A   Partly Cloudy
4:56 PM 81.0 °F 81.0 °F 57.0 °F 44% 30.02 in 10.0 mi Variable 5.8 mph - N/A   Clear
5:56 PM 79.0 °F - 57.9 °F 48% 30.01 in 10.0 mi NW 5.8 mph - N/A   Clear
6:56 PM 78.1 °F - 59.0 °F 52% 30.01 in 10.0 mi NW 5.8 mph - N/A   Clear
7:56 PM 73.9 °F - 60.1 °F 62% 30.01 in 10.0 mi Variable 3.5 mph - N/A   Clear
8:56 PM 70.0 °F - 60.1 °F 71% 30.03 in 10.0 mi NNE 3.5 mph - N/A   Clear
9:56 PM 68.0 °F - 59.0 °F 73% 30.04 in 10.0 mi Calm Calm - N/A   Clear
10:56 PM 64.0 °F - 59.0 °F 84% 30.04 in 10.0 mi North 3.5 mph - N/A   Clear
11:56 PM 62.1 °F - 59.0 °F 90% 30.04 in 10.0 mi Calm Calm - N/A   Clear